Waarnemingen

Advertentie
Mijn weer
Norderney, Duitsland (10113): temperatuur & dauwpunt: 21.06.2017 02:00:00 - 27.06.2017 02:00:00 (CEST)Norderney, Duitsland (10113): temperatuur 5cm & temperatuur -5cm: 21.06.2017 02:00:00 - 27.06.2017 02:00:00 (CEST)Norderney, Duitsland (10113): temperatuur -20cm & temperatuur -100cm: 21.06.2017 02:00:00 - 27.06.2017 02:00:00 (CEST)Norderney, Duitsland (10113): windsnelheid & windstoten: 21.06.2017 02:00:00 - 27.06.2017 02:00:00 (CEST)Norderney, Duitsland (10113): windrichting: 21.06.2017 02:00:00 - 27.06.2017 02:00:00 (CEST)Norderney, Duitsland (10113): luchtdruk: 21.06.2017 02:00:00 - 27.06.2017 02:00:00 (CEST)Norderney, Duitsland (10113): zicht: 21.06.2017 02:00:00 - 27.06.2017 02:00:00 (CEST)Norderney, Duitsland (10113): Zonneschijnduur: 21.06.2017 02:00:00 - 27.06.2017 02:00:00 (CEST)Norderney, Duitsland (10113): neerslag: 21.06.2017 02:00:00 - 27.06.2017 02:00:00 (CEST)
Datum & Tijd tt [°C] td [°C] tt 5cm [°C] tt -5cm [°C] tt -20cm [°C] tt -100cm [°C] ff [km/u] ff [kn] fx [km/u] fx [kn] dd ppp [hPa] vv [km] sd [min] rr [mm]
27.06.2017 02:00:00 14,1 7,2 11,7 16,4 18,9 16,9 14 7 22 12 NNW 1014,6 19 0 0,0
27.06.2017 01:00:00 14,3 7,1 11,9 17,0 19,4 17,0 13 7 21 12 NNW 1014,8 23 0 0,0
27.06.2017 00:00:00 14,3 7,7 12,5 17,8 19,8 17,0 19 11 29 16 NNW 1014,5 14 0 0,0
26.06.2017 23:00:00 14,5 8,2 12,9 18,7 20,3 17,0 24 13 31 17 NNW 1014,1 22 0 0,0
26.06.2017 22:00:00 14,7 7,6 13,3 20,0 20,7 17,0 26 14 34 19 NNW 1014,1 29 44 0,0
26.06.2017 21:00:00 15,4 7,8 14,7 21,7 21,0 17,0 23 12 31 17 NW 1014,4 15 60 0,0
26.06.2017 20:00:00 15,6 8,8 16,8 23,5 21,0 17,0 22 12 34 18 NW 1014,6 19 60 0,0
26.06.2017 19:00:00 16,3 9,6 18,8 24,8 20,9 17,0 24 13 32 17 NW 1014,6 27 56 0,0
26.06.2017 18:00:00 16,6 8,7 20,3 25,5 20,6 17,0 24 13 35 19 NW 1014,5 16 54 0,0
26.06.2017 17:00:00 17,0 9,3 21,8 26,1 20,2 17,1 25 13 35 19 NW 1014,6 10 56 0,0
26.06.2017 16:00:00 16,2 8,6 21,9 26,1 19,5 17,1 28 15 37 20 NW 1014,2 17 56 0,0
26.06.2017 15:00:00 16,2 8,4 21,9 25,5 18,8 17,1 28 15 36 20 WNW 1013,9 8 59 0,0
26.06.2017 14:00:00 16,1 9,3 20,5 24,3 18,0 17,1 28 15 36 20 NW 1013,7 9 59 0,0
26.06.2017 13:00:00 16,1 8,9 21,4 22,4 17,3 17,1 29 15 35 19 NW 1013,4 8 60 0,0
26.06.2017 12:00:00 15,8 9,1 21,0 20,1 16,8 17,1 28 15 34 19 NW 1012,9 13 48 0,0
26.06.2017 11:00:00 15,5 9,5 18,5 18,5 16,4 17,2 26 14 35 19 NW 1012,4 15 48 0,0
26.06.2017 10:00:00 15,7 11,1 18,1 17,0 16,1 17,2 30 16 39 21 NW 1011,6 17 55 0,0
26.06.2017 09:00:00 15,7 10,5 17,8 15,5 16,0 17,2 34 18 39 21 NW 1011,1 31 51 0,0
26.06.2017 08:00:00 15,7 9,7 16,4 14,3 16,1 17,2 31 17 37 20 NW 1010,4 22 52 0,0
26.06.2017 07:00:00 15,5 9,5 14,2 14,1 16,2 17,2 31 17 36 20 NW 1009,9 32 60 0,0
26.06.2017 06:00:00 15,2 10,2 13,9 14,2 16,4 17,2 29 15 36 19 NW 1009,5 36 13 0,0
26.06.2017 05:00:00 15,3 10,5 13,5 14,5 16,6 17,2 27 15 37 20 WNW 1009,3 32 0 0,0
26.06.2017 04:00:00 15,5 11,3 14,1 14,8 16,7 17,3 32 18 38 21 WNW 1009,3 19 0 0,0
26.06.2017 03:00:00 15,6 11,7 14,3 15,0 16,9 17,3 29 16 38 21 W 1009,0 15 0 0,0
26.06.2017 02:00:00 15,5 11,8 14,0 15,4 17,1 17,3 21 12 34 18 W 1009,0 13 0 0,0
26.06.2017 01:00:00 15,6 11,8 14,9 15,6 17,2 17,3 23 12 36 20 W 1009,3 17 0 0,0
26.06.2017 00:00:00 15,7 11,1 15,1 15,8 17,4 17,3 29 16 38 21 W 1009,5 16 0 0,0
25.06.2017 23:00:00 15,8 12,0 15,2 16,0 17,5 17,3 26 14 42 23 W 1009,4 17 0 0,0
25.06.2017 22:00:00 15,6 11,5 15,1 16,2 17,7 17,3 25 14 41 22 W 1009,6 16 0 0,0
25.06.2017 21:00:00 15,7 11,0 15,3 16,5 17,8 17,3 27 15 45 24 W 1009,7 23 0 0,0
25.06.2017 20:00:00 15,9 10,9 15,6 16,9 18,0 17,4 30 16 47 25 W 1009,8 40 0 0,0
25.06.2017 19:00:00 16,0 10,2 16,0 17,2 18,1 17,4 27 15 46 25 W 1009,8 32 0 0,0
25.06.2017 18:00:00 16,0 9,8 16,0 17,5 18,2 17,4 34 18 49 27 W 1009,9 37 0 0,0
25.06.2017 17:00:00 15,0 12,0 14,3 18,0 18,2 17,4 24 13 46 25 W 1009,9 26 0 0,0
25.06.2017 16:00:00 15,9 10,7 16,6 18,4 18,3 17,4 32 17 43 23 W 1009,7 25 0 0,0
25.06.2017 15:00:00 15,5 11,2 15,9 18,4 18,3 17,4 29 16 49 27 W 1009,8 22 0 0,1
25.06.2017 14:00:00 14,7 11,7 14,2 19,0 18,2 17,4 33 18 50 27 W 1009,6 10 0 0,0
25.06.2017 13:00:00 17,0 11,3 18,4 19,3 18,0 17,4 37 20 54 29 W 1009,0 18 5 0,0
25.06.2017 12:00:00 16,9 11,4 18,4 19,3 17,8 17,5 42 23 51 27 W 1008,1 21 17 0,0
25.06.2017 11:00:00 17,5 12,2 19,7 18,1 17,7 17,5 34 19 46 25 W 1007,7 16 21 0,0
25.06.2017 10:00:00 16,7 11,9 17,1 17,4 17,7 17,5 30 16 44 24 W 1007,5 23 0 0,0
25.06.2017 09:00:00 16,5 12,3 17,1 16,9 17,7 17,5 34 19 48 26 W 1007,0 21 0 0,0
25.06.2017 08:00:00 16,9 11,3 16,5 16,8 17,8 17,5 35 19 51 28 W 1006,9 33 0 0,0
25.06.2017 07:00:00 17,1 14,0 16,5 16,8 17,9 17,5 22 12 45 25 WZW 1006,7 29 0 0,0
25.06.2017 06:00:00 17,2 13,2 15,6 16,9 18,0 17,5 21 12 42 23 W 1006,7 40 0 0,0
25.06.2017 05:00:00 17,2 14,5 15,8 17,1 18,1 17,5 26 14 42 23 W 1006,7 24 0 0,0
25.06.2017 04:00:00 17,0 15,5 16,0 17,2 18,2 17,5 25 14 42 23 W 1006,8 13 0 3,7
25.06.2017 03:00:00 16,9 16,3 16,6 17,4 18,4 17,6 23 13 48 26 W 1007,1 2,3 0 11,7
25.06.2017 02:00:00 17,3 15,8 16,3 17,4 18,6 17,6 28 15 45 25 ZW 1007,6 4,8 0 1,0
25.06.2017 01:00:00 16,9 15,7 16,1 17,2 18,7 17,6 19 11 33 18 ZW 1008,6 3,0 0 0,2
25.06.2017 00:00:00 16,1 14,6 15,3 17,3 18,9 17,6 15 8 24 13 ZZW 1009,5 24 0 0,0
24.06.2017 23:00:00 15,4 13,7 14,4 17,4 19,1 17,6 11 6 29 16 ZW 1009,9 38 0 0,2
24.06.2017 22:00:00 15,7 13,3 14,4 17,7 19,3 17,6 13 7 37 20 WZW 1010,0 42 0 0,2
24.06.2017 21:00:00 14,8 13,3 14,0 18,3 19,5 17,6 19 11 43 23 WZW 1010,8 7 0 0,8
24.06.2017 20:00:00 15,4 12,8 14,6 19,2 19,6 17,6 24 13 41 22 W 1011,3 15 0 0,0
24.06.2017 19:00:00 16,7 11,9 16,7 20,2 19,6 17,6 29 15 41 22 W 1011,1 56 0 0,0
24.06.2017 18:00:00 16,8 12,0 17,4 21,3 19,5 17,7 29 15 46 25 W 1011,3 65 19 0,0
24.06.2017 17:00:00 16,9 11,5 18,6 21,6 19,3 17,7 31 17 45 24 W 1011,3 27 22 0,0
24.06.2017 16:00:00 17,6 12,3 20,4 21,0 19,1 17,7 34 18 54 29 W 1011,5 19 31 0,0
24.06.2017 15:00:00 17,2 13,6 19,2 21,2 18,9 17,7 37 20 59 32 W 1011,1 29 44 0,0
24.06.2017 14:00:00 17,9 14,6 19,4 19,5 18,9 17,7 38 20 57 31 W 1010,6 17 19 0,0
24.06.2017 13:00:00 16,5 15,0 16,1 19,0 18,8 17,7 38 21 58 31 W 1009,9 18 0 0,0
24.06.2017 12:00:00 17,0 15,3 16,7 18,7 18,8 17,7 32 17 56 31 W 1010,1 15 0 0,2
24.06.2017 11:00:00 17,4 15,0 16,9 18,4 18,8 17,7 29 16 48 26 WZW 1009,7 22 0 0,0
24.06.2017 10:00:00 17,2 15,1 16,6 18,1 18,9 17,7 25 13 49 27 WZW 1009,7 19 0 0,0
24.06.2017 09:00:00 16,9 15,7 16,2 18,0 19,0 17,7 29 15 42 23 WZW 1009,7 16 0 1,0
24.06.2017 08:00:00 17,1 15,9 16,4 18,0 19,0 17,7 24 13 45 24 WZW 1009,9 7 0 0,1
24.06.2017 07:00:00 17,2 15,7 16,3 18,0 19,1 17,7 22 12 41 22 WZW 1010,0 17 0 0,0
24.06.2017 06:00:00 16,8 15,7 16,1 18,0 19,2 17,7 23 12 41 22 WZW 1010,3 7 0 0,1
24.06.2017 05:00:00 17,1 15,8 16,2 18,1 19,4 17,8 23 13 42 23 WZW 1010,7 19 0 0,3
24.06.2017 04:00:00 16,9 16,2 16,4 18,2 19,5 17,8 20 11 39 21 ZW 1011,2 2,1 0 0,9
24.06.2017 03:00:00 17,0 15,6 16,2 18,2 19,6 17,8 22 12 36 20 WZW 1011,7 10 0 0,2
24.06.2017 02:00:00 16,9 15,9 16,2 18,3 19,7 17,8 19 10 37 20 WZW 1012,0 13 0 0,2
24.06.2017 01:00:00 16,7 15,4 15,9 18,4 19,9 17,8 22 12 41 22 WZW 1012,6 8 0 0,1
24.06.2017 00:00:00 16,6 15,2 15,8 18,6 20,1 17,8 21 12 42 23 ZW 1013,0 7 0 0,0
23.06.2017 23:00:00 16,4 14,9 15,5 18,9 20,3 17,8 21 12 47 26 WZW 1013,3 19 0 0,4
23.06.2017 22:00:00 16,3 14,5 15,3 19,3 20,5 17,8 27 15 48 26 WZW 1013,4 13 0 0,2
23.06.2017 21:00:00 17,1 13,4 16,8 19,8 20,6 17,8 31 17 53 28 W 1013,4 24 0 0,0
23.06.2017 20:00:00 17,1 13,5 16,9 20,4 20,8 17,8 33 18 53 28 W 1013,4 23 0 0,0
23.06.2017 19:00:00 16,8 12,7 16,9 21,2 20,9 17,8 36 19 59 32 W 1013,2 28 0 0,0
23.06.2017 18:00:00 17,2 14,3 17,2 22,1 20,8 17,8 37 20 56 30 W 1013,2 16 0 0,0
23.06.2017 17:00:00 18,7 14,1 19,8 22,3 20,8 17,8 29 16 48 26 W 1013,0 20 9 0,0
23.06.2017 16:00:00 17,6 14,5 17,3 22,8 20,7 17,8 27 15 51 28 WZW 1012,8 15 0 0,0
23.06.2017 15:00:00 18,3 13,4 20,6 23,1 20,5 17,8 27 15 47 26 W 1012,9 22 1 0,0
23.06.2017 14:00:00 17,7 12,8 20,3 22,7 20,3 17,8 32 17 52 28 W 1013,0 15 5 0,0
23.06.2017 13:00:00 17,6 12,9 20,4 22,2 20,1 17,8 29 16 48 26 W 1012,6 17 23 0,0
23.06.2017 12:00:00 17,6 14,0 20,6 20,7 20,0 17,8 31 17 45 24 W 1012,7 15 24 0,0
23.06.2017 11:00:00 17,3 14,3 19,5 20,0 20,0 17,8 31 17 45 24 W 1012,4 20 16 0,0
23.06.2017 10:00:00 16,9 13,9 18,0 19,3 20,1 17,8 28 15 44 24 W 1011,7 18 7 0,0
23.06.2017 09:00:00 16,5 13,5 17,3 18,7 20,2 17,8 31 17 48 26 W 1011,2 20 0 0,0
23.06.2017 08:00:00 16,4 13,5 16,4 18,5 20,4 17,8 38 20 55 30 WNW 1010,6 16 0 0,0
23.06.2017 07:00:00 16,4 14,2 16,2 18,6 20,6 17,8 45 25 56 31 WNW 1009,7 18 0 0,0
23.06.2017 06:00:00 16,6 14,7 16,3 18,8 20,8 17,8 43 23 59 32 W 1009,2 20 0 0,0
23.06.2017 05:00:00 16,6 14,7 16,2 19,0 21,0 17,8 46 25 58 31 W 1008,6 20 0 0,0
23.06.2017 04:00:00 16,5 14,7 16,3 19,2 21,2 17,7 43 23 60 33 W 1008,5 19 0 0,0
23.06.2017 03:00:00 16,1 14,8 15,9 19,5 21,5 17,7 50 27 66 36 W 1008,7 15 0 0,0
23.06.2017 02:00:00 16,0 15,2 15,8 19,9 21,8 17,7 50 27 64 35 W 1007,9 11 0 0,0
23.06.2017 01:00:00 16,5 16,0 16,3 20,3 22,1 17,7 46 25 61 33 W 1007,4 3,0 0 0,0
23.06.2017 00:00:00 16,7 15,8 16,5 20,8 22,4 17,7 45 24 61 33 W 1006,9 5 0 0,0
22.06.2017 23:00:00 17,6 16,0 17,2 21,5 22,7 17,7 29 16 52 28 WZW 1006,3 6 0 0,0
22.06.2017 22:00:00 18,2 16,5 17,5 22,2 23,0 17,7 23 12 48 26 WZW 1005,7 6 0 0,0
22.06.2017 21:00:00 18,1 16,9 17,7 23,1 23,3 17,7 25 14 43 23 W 1005,7 4,2 4 0,0
22.06.2017 20:00:00 18,3 17,2 18,1 24,1 23,6 17,7 32 17 48 26 W 1006,4 2,8 0 0,0
22.06.2017 19:00:00 21,1 18,4 19,8 25,4 23,7 17,7 12 7 26 14 ZZW 1006,3 10 0 0,1
22.06.2017 18:00:00 20,8 19,4 20,0 27,6 23,7 17,7 16 9 49 27 Z 1006,2 3,5 0 3,2
22.06.2017 17:00:00 20,4 18,0 21,2 30,3 23,3 17,7 45 24 72 39 W 1007,7 5 9 0,0
22.06.2017 16:00:00 21,9 18,4 26,2 30,8 22,7 17,7 13 7 27 14 W 1006,7 6 47 0,0
22.06.2017 15:00:00 22,9 17,9 30,2 29,7 22,2 17,7 13 7 23 12 W 1007,2 8 58 0,0
22.06.2017 14:00:00 24,7 18,0 30,9 28,5 21,6 17,7 8 4 20 11 NNW 1007,5 10 53 0,0
22.06.2017 13:00:00 23,7 17,4 29,5 27,0 21,1 17,7 16 9 38 20 ZO 1007,8 20 60 0,0
22.06.2017 12:00:00 23,1 16,2 28,4 24,5 20,8 17,7 23 12 40 21 O 1008,5 16 60 0,0
22.06.2017 11:00:00 23,2 16,9 26,6 22,6 20,7 17,7 12 7 28 15 ZZW 1008,8 17 21 0,0
22.06.2017 10:00:00 22,3 15,8 23,7 21,5 20,6 17,7 22 12 37 20 Z 1007,7 23 22 0,0
22.06.2017 09:00:00 21,0 14,4 21,9 20,3 20,7 17,7 21 11 31 17 ZZO 1008,1 28 27 0,0
22.06.2017 08:00:00 18,8 13,1 19,9 19,4 20,8 17,7 19 11 29 16 ZZO 1009,3 29 52 0,0
22.06.2017 07:00:00 16,9 12,1 16,5 19,2 21,0 17,7 17 9 26 14 ZZO 1010,0 48 1 0,0
22.06.2017 06:00:00 15,2 11,8 15,0 19,2 21,3 17,6 17 9 29 16 ZO 1011,1 43 0 0,0
22.06.2017 05:00:00 14,7 11,3 14,5 19,3 21,5 17,6 20 11 31 17 ZO 1012,1 42 0 0,0
22.06.2017 04:00:00 14,4 10,8 13,8 19,6 21,8 17,6 17 9 24 13 ZO 1013,2 50 0 0,0
22.06.2017 03:00:00 14,4 11,1 13,4 20,1 22,2 17,6 12 6 22 12 ZO 1014,3 50 0 0,0
22.06.2017 02:00:00 15,0 11,4 14,1 20,6 22,5 17,6 14 7 21 12 ZO 1014,3 56 0 0,0
22.06.2017 01:00:00 15,2 11,0 14,2 21,2 22,9 17,6 13 7 24 13 ZO 1014,8 70 0 0,0
22.06.2017 00:00:00 15,4 11,1 14,4 22,1 23,3 17,6 14 7 21 11 ZO 1015,7 70 0 0,0
21.06.2017 23:00:00 15,1 10,6 14,1 23,1 23,6 17,6 11 6 20 11 OZO 1016,0 60 0 0,0
21.06.2017 22:00:00 15,5 10,2 14,7 24,5 23,9 17,6 10 5 23 12 O 1016,3 53 15 0,0
21.06.2017 21:00:00 16,2 10,3 16,3 25,9 24,1 17,6 15 8 26 14 O 1016,6 60 28 0,0
21.06.2017 20:00:00 16,2 10,4 17,0 27,3 24,2 17,6 19 10 29 15 ONO 1017,0 57 12 0,0
21.06.2017 19:00:00 16,3 10,5 17,7 28,9 24,1 17,6 23 13 31 17 NO 1017,7 33 21 0,0
21.06.2017 18:00:00 17,0 11,0 19,8 30,3 23,7 17,6 25 14 30 16 NO 1017,7 22 50 0,0
21.06.2017 17:00:00 17,2 10,7 22,0 30,7 23,3 17,6 24 13 30 16 NO 1018,2 10 60 0,0
21.06.2017 16:00:00 18,0 10,7 23,2 30,6 22,7 17,6 23 13 29 15 NO 1018,2 10 60 0,0
21.06.2017 15:00:00 17,1 9,7 22,9 29,9 22,0 17,6 20 11 25 13 NO 1019,1 15 60 0,0
21.06.2017 14:00:00 17,2 10,3 24,7 28,5 21,4 17,6 16 9 22 12 NO 1019,8 15 60 0,0
21.06.2017 13:00:00 16,0 9,3 24,1 26,5 20,9 17,6 14 8 19 10 NNO 1020,4 21 60 0,0
21.06.2017 12:00:00 15,7 9,3 23,4 24,5 20,5 17,6 11 6 17 9 N 1020,8 33 60 0,0
21.06.2017 11:00:00 15,3 8,9 23,1 22,9 20,2 17,6 12 7 16 9 N 1020,9 29 60 0,0
21.06.2017 10:00:00 15,7 9,2 21,3 21,0 20,1 17,6 8 4 14 8 NO 1020,9 38 51 0,0
21.06.2017 09:00:00 15,6 9,1 19,8 19,4 20,1 17,5 9 5 16 8 NNO 1021,0 29 55 0,0
21.06.2017 08:00:00 14,7 8,9 16,0 18,2 20,3 17,5 8 5 20 11 NNO 1020,8 32 19 0,0
21.06.2017 07:00:00 14,1 9,3 14,0 17,9 20,5 17,5 13 7 21 12 NNO 1020,8 37 21 0,0
21.06.2017 06:00:00 13,6 8,9 12,7 18,0 20,8 17,5 14 7 23 13 N 1020,8 30 0 0,0
21.06.2017 05:00:00 13,6 9,1 12,6 18,3 21,1 17,5 17 9 24 13 NNO 1020,9 46 0 0,0
21.06.2017 04:00:00 13,6 9,2 12,2 18,6 21,5 17,5 16 8 24 13 NNO 1021,0 45 0 0,0
21.06.2017 03:00:00 13,6 9,4 12,2 19,0 21,8 17,5 19 11 26 14 NNO 1021,1 34 0 0,0
21.06.2017 02:00:00 13,8 9,4 12,2 19,6 22,2 17,5 20 11 28 15 NNO 1021,5 46 0 0,0

tt = temperatuur
td = dauwpunt
tt 5cm = temperatuur 5cm
tt -5cm = temperatuur -5cm
tt -20cm = temperatuur -20cm
tt -100cm = temperatuur -100cm
ff = windsnelheid
fx = windstoten
dd = windrichting
ppp = luchtdruk
vv = zicht
sd = Zonneschijnduur
rr = neerslag

Weerstations in de omgeving